Regional Weather Roundup
Issued by NWS

Home | Current Version | Previous Version | Graphics & Text | Print | Product List | Glossary Off
Versions: 1 2 3 4 5 6 7 8 9 10 11 12 13 14 15 16 17 18 19 20 21 22 23 24 25 26 27 28 29 30 31 32 33 34 35 36 37 38 39 40 41 42 43 44 45 46 47 48 49 50

000
ASUS43 KTOP 290908
RWRKS

WEATHER ROUNDUP FOR KANSAS
NATIONAL WEATHER SERVICE GOODLAND KS
400 AM CDT THU JUN 29 2017

NOTE:  "FAIR" INDICATES FEW OR NO CLOUDS BELOW 12,000 FEET WITH NO
SIGNIFICANT WEATHER AND/OR OBSTRUCTIONS TO VISIBILITY.

KSZ001>006-013>018-027>032-041>047-291000-
NORTHWEST KANSAS

CITY           SKY/WX    TMP DP  RH WIND       PRES   REMARKS
GOODLAND       CLOUDY    64  57  78 NE20G28   29.74F
HAYS           MOCLDY    72  66  81 E7        29.73F
HILL CITY      TSTM      71  68  90 NW15      29.79R
RUSSELL        MOCLDY    74  66  76 E8        29.72F
$$

KSZ061>065-074>080-084>089-291000-
SOUTHWEST KANSAS

CITY           SKY/WX    TMP DP  RH WIND       PRES   REMARKS
DODGE CITY     CLEAR     71  65  81 S7        29.70F
ELKHART          N/A     72  50  46 S13         N/A
GARDEN CITY    CLEAR     71  63  75 SE8       29.70R
GREAT BEND     CLEAR     74  67  78 S10       29.71F
LIBERAL        CLEAR     75  61  61 S21       29.68F
PRATT          PTCLDY    71  64  76 S14       29.73S
$$

KSZ066>073-081>083-090>101-291000-
SOUTHEAST KANSAS

CITY           SKY/WX    TMP DP  RH WIND       PRES   REMARKS
CHANUTE        CLEAR     74  67  78 S10       29.81S
COFFEYVILLE    CLEAR     75  68  78 S12       29.80F
HUTCHINSON     CLEAR     76  66  71 S13       29.73F
MEDICINE LODGE   N/A     73  65  75 SE8       29.73S
NEWTON         CLEAR     75  66  73 S18       29.76S
PARSONS        CLEAR     74  67  78 S7        29.82F
WICHITA INTL   PTCLDY    75  67  76 S14       29.75S
WICHITA JABRA  CLEAR     74  66  76 S14       29.76S
WICHITA MCCONL CLEAR     75  65  70 S15       29.76S
WINFIELD       CLEAR     74  67  78 SE12      29.79S
$$

KSZ007>012-019>026-033>040-048>060-102>105-291000-
NORTHEAST KANSAS

CITY           SKY/WX    TMP DP  RH WIND       PRES   REMARKS
CONCORDIA      TSTM      62  61  96 SE14      29.84F FOG
EMPORIA        MOCLDY    74  67  78 S9        29.78S
LAWRENCE       CLOUDY    76  70  82 E7        29.81S
MANHATTAN      CLOUDY    75  63  66 SE6       29.74F
MARYSVILLE     TSTM      68  64  88 SW12      29.84R
OLATHE IND     CLOUDY    75  68  78 E6        29.86R
OLATHE EXE     CLOUDY    75  69  81 SE5       29.86R
SALINA         CLOUDY    80  66  62 SE7       29.76R
TOPEKA BILLARD CLOUDY    77  65  66 W12       29.80R
TOPEKA FORBES  CLOUDY    77  69  76 W5        29.81S
$$




USA.gov is the U.S. government's official web portal to all federal, state and local government web resources and services.